Year,Month,Day,Hour,Minute,Value (Times are PST for temperature in C)
2007,09,23,00,00,6.60
2007,09,23,00,01,6.60
2007,09,23,00,02,6.60
2007,09,23,00,03,6.60
2007,09,23,00,04,6.60
2007,09,23,00,05,6.70
2007,09,23,00,06,6.70
2007,09,23,00,07,6.70
2007,09,23,00,08,6.70
2007,09,23,00,09,6.70
2007,09,23,00,10,6.70
2007,09,23,00,11,6.70
2007,09,23,00,12,6.70
2007,09,23,00,13,6.70
2007,09,23,00,14,6.70
2007,09,23,00,15,6.70
2007,09,23,00,16,6.70
2007,09,23,00,17,6.70
2007,09,23,00,18,6.70
2007,09,23,00,19,6.80
2007,09,23,00,20,6.80
2007,09,23,00,21,6.80
2007,09,23,00,22,6.80
2007,09,23,00,23,6.70
2007,09,23,00,24,6.70
2007,09,23,00,25,6.70
2007,09,23,00,26,6.70
2007,09,23,00,27,6.70
2007,09,23,00,28,6.70
2007,09,23,00,29,6.70
2007,09,23,00,30,6.60
2007,09,23,00,31,6.60
2007,09,23,00,32,6.60
2007,09,23,00,33,6.50
2007,09,23,00,34,6.40
2007,09,23,00,35,6.40
2007,09,23,00,36,6.40
2007,09,23,00,37,6.30
2007,09,23,00,38,6.30
2007,09,23,00,39,6.30
2007,09,23,00,40,6.30
2007,09,23,00,41,6.30
2007,09,23,00,42,6.30
2007,09,23,00,43,6.30
2007,09,23,00,44,6.40
2007,09,23,00,45,6.50
2007,09,23,00,46,6.60
2007,09,23,00,47,6.70
2007,09,23,00,48,6.80
2007,09,23,00,49,6.90
2007,09,23,00,50,7.00
2007,09,23,00,51,7.00
2007,09,23,00,52,7.10
2007,09,23,00,53,7.20
2007,09,23,00,54,7.20
2007,09,23,00,55,7.20
2007,09,23,00,56,7.20
2007,09,23,00,57,7.20
2007,09,23,00,58,7.10
2007,09,23,00,59,7.10
2007,09,23,01,00,7.00
2007,09,23,01,01,6.90
2007,09,23,01,02,6.90
2007,09,23,01,03,6.90
2007,09,23,01,04,6.80
2007,09,23,01,05,6.80
2007,09,23,01,06,6.80
2007,09,23,01,07,6.70
2007,09,23,01,08,6.70
2007,09,23,01,09,6.60
2007,09,23,01,10,6.60
2007,09,23,01,11,6.50
2007,09,23,01,12,6.50
2007,09,23,01,13,6.40
2007,09,23,01,14,6.40
2007,09,23,01,15,6.40
2007,09,23,01,16,6.30
2007,09,23,01,17,6.30
2007,09,23,01,18,6.30
2007,09,23,01,19,6.30
2007,09,23,01,20,6.20
2007,09,23,01,21,6.20
2007,09,23,01,22,6.20
2007,09,23,01,23,6.20
2007,09,23,01,24,6.10
2007,09,23,01,25,6.10
2007,09,23,01,26,6.10
2007,09,23,01,27,6.10
2007,09,23,01,28,6.10
2007,09,23,01,29,6.10
2007,09,23,01,30,6.10
2007,09,23,01,31,6.10
2007,09,23,01,32,6.00
2007,09,23,01,33,6.00
2007,09,23,01,34,6.00
2007,09,23,01,35,5.90
2007,09,23,01,36,5.90
2007,09,23,01,37,5.90
2007,09,23,01,38,5.90
2007,09,23,01,39,5.80
2007,09,23,01,40,5.80
2007,09,23,01,41,5.80
2007,09,23,01,42,5.80
2007,09,23,01,43,5.70
2007,09,23,01,44,5.70
2007,09,23,01,45,5.70
2007,09,23,01,46,5.70
2007,09,23,01,47,5.70
2007,09,23,01,48,5.70
2007,09,23,01,49,5.70
2007,09,23,01,50,5.70
2007,09,23,01,51,5.70
2007,09,23,01,52,5.70
2007,09,23,01,53,5.60
2007,09,23,01,54,5.60
2007,09,23,01,55,5.60
2007,09,23,01,56,5.60
2007,09,23,01,57,5.60
2007,09,23,01,58,5.60
2007,09,23,01,59,5.60
2007,09,23,02,00,5.60
2007,09,23,02,01,5.60
2007,09,23,02,02,5.60
2007,09,23,02,03,5.70
2007,09,23,02,04,5.70
2007,09,23,02,05,5.70
2007,09,23,02,06,5.80
2007,09,23,02,07,5.80
2007,09,23,02,08,5.80
2007,09,23,02,09,5.80
2007,09,23,02,10,5.80
2007,09,23,02,11,5.80
2007,09,23,02,12,5.80
2007,09,23,02,13,5.80
2007,09,23,02,14,5.80
2007,09,23,02,15,5.70
2007,09,23,02,16,5.70
2007,09,23,02,17,5.80
2007,09,23,02,18,5.80
2007,09,23,02,19,5.70
2007,09,23,02,20,5.70
2007,09,23,02,21,5.70
2007,09,23,02,22,5.70
2007,09,23,02,23,5.60
2007,09,23,02,24,5.60
2007,09,23,02,25,5.60
2007,09,23,02,26,5.60
2007,09,23,02,27,5.50
2007,09,23,02,28,5.50
2007,09,23,02,29,5.50
2007,09,23,02,30,5.40
2007,09,23,02,31,5.40
2007,09,23,02,32,5.40
2007,09,23,02,33,5.40
2007,09,23,02,34,5.40
2007,09,23,02,35,5.30
2007,09,23,02,36,5.30
2007,09,23,02,37,5.30
2007,09,23,02,38,5.30
2007,09,23,02,39,5.30
2007,09,23,02,40,5.30
2007,09,23,02,41,5.30
2007,09,23,02,42,5.30
2007,09,23,02,43,5.30
2007,09,23,02,44,5.30
2007,09,23,02,45,5.30
2007,09,23,02,46,5.30
2007,09,23,02,47,5.30
2007,09,23,02,48,5.30
2007,09,23,02,49,5.30
2007,09,23,02,50,5.30
2007,09,23,02,51,5.30
2007,09,23,02,52,5.20
2007,09,23,02,53,5.30
2007,09,23,02,54,5.30
2007,09,23,02,55,5.30
2007,09,23,02,56,5.20
2007,09,23,02,57,5.30
2007,09,23,02,58,5.30
2007,09,23,02,59,5.30
2007,09,23,03,00,5.30
2007,09,23,03,01,5.30
2007,09,23,03,02,5.30
2007,09,23,03,03,5.30
2007,09,23,03,04,5.30
2007,09,23,03,05,5.30
2007,09,23,03,06,5.30
2007,09,23,03,07,5.30
2007,09,23,03,08,5.20
2007,09,23,03,09,5.20
2007,09,23,03,10,5.20
2007,09,23,03,11,5.20
2007,09,23,03,12,5.20
2007,09,23,03,13,5.20
2007,09,23,03,14,5.20
2007,09,23,03,15,5.20
2007,09,23,03,16,5.10
2007,09,23,03,17,5.10
2007,09,23,03,18,5.10
2007,09,23,03,19,5.10
2007,09,23,03,20,5.10
2007,09,23,03,21,5.10
2007,09,23,03,22,5.10
2007,09,23,03,23,5.10
2007,09,23,03,24,5.10
2007,09,23,03,25,5.00
2007,09,23,03,26,5.00
2007,09,23,03,27,5.00
2007,09,23,03,28,5.00
2007,09,23,03,29,5.00
2007,09,23,03,30,4.90
2007,09,23,03,31,4.90
2007,09,23,03,32,4.90
2007,09,23,03,33,4.90
2007,09,23,03,34,4.90
2007,09,23,03,35,4.90
2007,09,23,03,36,4.90
2007,09,23,03,37,4.80
2007,09,23,03,38,4.80
2007,09,23,03,39,4.80
2007,09,23,03,40,4.80
2007,09,23,03,41,4.80
2007,09,23,03,42,4.80
2007,09,23,03,43,4.80
2007,09,23,03,44,4.80
2007,09,23,03,45,4.80
2007,09,23,03,46,4.80
2007,09,23,03,47,4.80
2007,09,23,03,48,4.80
2007,09,23,03,49,4.80
2007,09,23,03,50,4.80
2007,09,23,03,51,4.80
2007,09,23,03,52,4.80
2007,09,23,03,53,4.70
2007,09,23,03,54,4.70
2007,09,23,03,55,4.70
2007,09,23,03,56,4.70
2007,09,23,03,57,4.70
2007,09,23,03,58,4.70
2007,09,23,03,59,4.80
2007,09,23,04,00,4.80
2007,09,23,04,01,4.80
2007,09,23,04,02,4.80
2007,09,23,04,03,4.80
2007,09,23,04,05,4.80
2007,09,23,04,06,4.80
2007,09,23,04,07,4.80
2007,09,23,04,08,4.80
2007,09,23,04,09,4.80
2007,09,23,04,10,4.80
2007,09,23,04,11,4.80
2007,09,23,04,12,4.80
2007,09,23,04,13,4.80
2007,09,23,04,14,4.80
2007,09,23,04,15,4.80
2007,09,23,04,16,4.80
2007,09,23,04,17,4.80
2007,09,23,04,18,4.80
2007,09,23,04,19,4.80
2007,09,23,04,20,4.80
2007,09,23,04,21,4.70
2007,09,23,04,22,4.70
2007,09,23,04,23,4.70
2007,09,23,04,24,4.70
2007,09,23,04,25,4.70
2007,09,23,04,26,4.70
2007,09,23,04,27,4.70
2007,09,23,04,28,4.70
2007,09,23,04,29,4.70
2007,09,23,04,30,4.70
2007,09,23,04,31,4.70
2007,09,23,04,32,4.70
2007,09,23,04,33,4.70
2007,09,23,04,34,4.70
2007,09,23,04,35,4.80
2007,09,23,04,36,4.80
2007,09,23,04,37,4.80
2007,09,23,04,38,4.80
2007,09,23,04,39,4.90
2007,09,23,04,40,4.90
2007,09,23,04,41,4.90
2007,09,23,04,42,4.90
2007,09,23,04,43,5.00
2007,09,23,04,44,5.00
2007,09,23,04,45,5.00
2007,09,23,04,46,5.00
2007,09,23,04,47,5.10
2007,09,23,04,48,5.10
2007,09,23,04,49,5.10
2007,09,23,04,50,5.10
2007,09,23,04,51,5.10
2007,09,23,04,52,5.10
2007,09,23,04,53,5.10
2007,09,23,04,54,5.10
2007,09,23,04,55,5.10
2007,09,23,04,56,5.10
2007,09,23,04,57,5.10
2007,09,23,04,58,5.10
2007,09,23,04,59,5.10
2007,09,23,05,00,5.00
2007,09,23,05,01,5.00
2007,09,23,05,02,5.00
2007,09,23,05,03,5.00
2007,09,23,05,04,5.00
2007,09,23,05,05,5.00
2007,09,23,05,06,5.00
2007,09,23,05,07,5.00
2007,09,23,05,08,4.90
2007,09,23,05,09,4.90
2007,09,23,05,10,4.90
2007,09,23,05,11,4.90
2007,09,23,05,12,4.90
2007,09,23,05,13,4.90
2007,09,23,05,14,4.90
2007,09,23,05,15,4.90
2007,09,23,05,16,4.90
2007,09,23,05,17,4.80
2007,09,23,05,18,4.80
2007,09,23,05,19,4.80
2007,09,23,05,20,4.80
2007,09,23,05,21,4.80
2007,09,23,05,22,4.80
2007,09,23,05,23,4.70
2007,09,23,05,24,4.70
2007,09,23,05,25,4.70
2007,09,23,05,26,4.70
2007,09,23,05,27,4.70
2007,09,23,05,28,4.70
2007,09,23,05,29,4.70
2007,09,23,05,30,4.70
2007,09,23,05,31,4.70
2007,09,23,05,32,4.70
2007,09,23,05,33,4.80
2007,09,23,05,34,4.80
2007,09,23,05,35,4.80
2007,09,23,05,36,4.80
2007,09,23,05,37,4.80
2007,09,23,05,38,4.70
2007,09,23,05,39,4.70
2007,09,23,05,40,4.70
2007,09,23,05,41,4.70
2007,09,23,05,42,4.70
2007,09,23,05,43,4.70
2007,09,23,05,44,4.70
2007,09,23,05,45,4.70
2007,09,23,05,46,4.70
2007,09,23,05,47,4.70
2007,09,23,05,48,4.70
2007,09,23,05,49,4.70
2007,09,23,05,50,4.70
2007,09,23,05,51,4.70
2007,09,23,05,52,4.70
2007,09,23,05,53,4.70
2007,09,23,05,54,4.70
2007,09,23,05,55,4.70
2007,09,23,05,56,4.70
2007,09,23,05,57,4.70
2007,09,23,05,58,4.70
2007,09,23,05,59,4.70
2007,09,23,06,00,4.70
2007,09,23,06,01,4.70
2007,09,23,06,02,4.70
2007,09,23,06,03,4.70
2007,09,23,06,04,4.70
2007,09,23,06,05,4.70
2007,09,23,06,06,4.70
2007,09,23,06,07,4.70
2007,09,23,06,08,4.70
2007,09,23,06,09,4.70
2007,09,23,06,10,4.70
2007,09,23,06,11,4.70
2007,09,23,06,12,4.70
2007,09,23,06,13,4.70
2007,09,23,06,14,4.70
2007,09,23,06,15,4.70
2007,09,23,06,16,4.70
2007,09,23,06,17,4.70
2007,09,23,06,18,4.70
2007,09,23,06,19,4.70
2007,09,23,06,20,4.80
2007,09,23,06,21,4.80
2007,09,23,06,22,4.80
2007,09,23,06,23,4.80
2007,09,23,06,24,4.80
2007,09,23,06,25,4.80
2007,09,23,06,26,4.80
2007,09,23,06,27,4.80
2007,09,23,06,28,4.80
2007,09,23,06,29,4.80
2007,09,23,06,30,4.80
2007,09,23,06,31,4.80
2007,09,23,06,32,4.80
2007,09,23,06,33,4.80
2007,09,23,06,34,4.80
2007,09,23,06,35,4.80
2007,09,23,06,36,4.80
2007,09,23,06,37,4.80
2007,09,23,06,38,4.80
2007,09,23,06,39,4.80
2007,09,23,06,40,4.80
2007,09,23,06,41,4.80
2007,09,23,06,42,4.80
2007,09,23,06,43,4.80
2007,09,23,06,44,4.80
2007,09,23,06,45,4.80
2007,09,23,06,46,4.80
2007,09,23,06,47,4.80
2007,09,23,06,48,4.80
2007,09,23,06,49,4.80
2007,09,23,06,50,4.80
2007,09,23,06,51,4.70
2007,09,23,06,52,4.70
2007,09,23,06,53,4.70
2007,09,23,06,54,4.70
2007,09,23,06,55,4.70
2007,09,23,06,56,4.70
2007,09,23,06,57,4.70
2007,09,23,06,58,4.70
2007,09,23,06,59,4.70
2007,09,23,07,00,4.70
2007,09,23,07,01,4.70
2007,09,23,07,02,4.70
2007,09,23,07,03,4.70
2007,09,23,07,04,4.60
2007,09,23,07,05,4.60
2007,09,23,07,06,4.60
2007,09,23,07,07,4.60
2007,09,23,07,08,4.60
2007,09,23,07,09,4.60
2007,09,23,07,10,4.60
2007,09,23,07,11,4.60
2007,09,23,07,12,4.50
2007,09,23,07,13,4.50
2007,09,23,07,14,4.50
2007,09,23,07,15,4.50
2007,09,23,07,16,4.40
2007,09,23,07,17,4.40
2007,09,23,07,18,4.40
2007,09,23,07,19,4.40
2007,09,23,07,20,4.40
2007,09,23,07,21,4.40
2007,09,23,07,22,4.40
2007,09,23,07,23,4.40
2007,09,23,07,24,4.40
2007,09,23,07,25,4.40
2007,09,23,07,26,4.40
2007,09,23,07,27,4.40
2007,09,23,07,28,4.40
2007,09,23,07,29,4.40
2007,09,23,07,30,4.40
2007,09,23,07,31,4.40
2007,09,23,07,32,4.40
2007,09,23,07,33,4.40
2007,09,23,07,34,4.40
2007,09,23,07,35,4.40
2007,09,23,07,36,4.40
2007,09,23,07,37,4.30
2007,09,23,07,38,4.30
2007,09,23,07,39,4.30
2007,09,23,07,40,4.30
2007,09,23,07,41,4.30
2007,09,23,07,42,4.30
2007,09,23,07,43,4.30
2007,09,23,07,44,4.30
2007,09,23,07,45,4.30
2007,09,23,07,46,4.30
2007,09,23,07,47,4.30
2007,09,23,07,48,4.30
2007,09,23,07,49,4.40
2007,09,23,07,50,4.40
2007,09,23,07,51,4.50
2007,09,23,07,52,4.50
2007,09,23,07,53,4.50
2007,09,23,07,54,4.60
2007,09,23,07,55,4.60
2007,09,23,07,56,4.60
2007,09,23,07,57,4.60
2007,09,23,07,58,4.70
2007,09,23,07,59,4.70
2007,09,23,08,00,4.80
2007,09,23,08,01,4.90
2007,09,23,08,02,4.90
2007,09,23,08,03,4.90
2007,09,23,08,04,4.90
2007,09,23,08,05,4.90
2007,09,23,08,06,4.90
2007,09,23,08,07,4.90
2007,09,23,08,08,4.90
2007,09,23,08,09,4.90
2007,09,23,08,10,4.90
2007,09,23,08,11,5.00
2007,09,23,08,12,5.00
2007,09,23,08,13,5.10
2007,09,23,08,14,5.10
2007,09,23,08,15,5.20
2007,09,23,08,16,5.20
2007,09,23,08,17,5.20
2007,09,23,08,18,5.30
2007,09,23,08,19,5.30
2007,09,23,08,20,5.30
2007,09,23,08,21,5.40
2007,09,23,08,22,5.40
2007,09,23,08,23,5.50
2007,09,23,08,24,5.60
2007,09,23,08,25,5.60
2007,09,23,08,26,5.70
2007,09,23,08,27,5.80
2007,09,23,08,28,5.80
2007,09,23,08,29,5.90
2007,09,23,08,30,5.90
2007,09,23,08,31,5.90
2007,09,23,08,32,6.00
2007,09,23,08,33,6.00
2007,09,23,08,34,6.10
2007,09,23,08,35,6.10
2007,09,23,08,36,6.10
2007,09,23,08,37,6.20
2007,09,23,08,38,6.20
2007,09,23,08,39,6.30
2007,09,23,08,40,6.30
2007,09,23,08,41,6.40
2007,09,23,08,42,6.40
2007,09,23,08,43,6.50
2007,09,23,08,44,6.60
2007,09,23,08,45,6.70
2007,09,23,08,46,6.80
2007,09,23,08,47,6.80
2007,09,23,08,48,6.90
2007,09,23,08,49,6.90
2007,09,23,08,50,7.00
2007,09,23,08,51,7.00
2007,09,23,08,52,7.10
2007,09,23,08,53,7.10
2007,09,23,08,54,7.20
2007,09,23,08,55,7.20
2007,09,23,08,56,7.20
2007,09,23,08,57,7.20
2007,09,23,08,58,7.20
2007,09,23,08,59,7.30
2007,09,23,09,00,7.30
2007,09,23,09,01,7.40
2007,09,23,09,02,7.40
2007,09,23,09,03,7.50
2007,09,23,09,04,7.50
2007,09,23,09,05,7.60
2007,09,23,09,06,7.60
2007,09,23,09,07,7.60
2007,09,23,09,08,7.70
2007,09,23,09,09,7.60
2007,09,23,09,10,7.70
2007,09,23,09,11,7.70
2007,09,23,09,12,7.70
2007,09,23,09,13,7.70
2007,09,23,09,14,7.80
2007,09,23,09,15,7.80
2007,09,23,09,16,7.90
2007,09,23,09,17,7.90
2007,09,23,09,18,8.00
2007,09,23,09,19,8.10
2007,09,23,09,20,8.10
2007,09,23,09,21,8.20
2007,09,23,09,22,8.30
2007,09,23,09,23,8.30
2007,09,23,09,24,8.40
2007,09,23,09,25,8.50
2007,09,23,09,26,8.60
2007,09,23,09,27,8.60
2007,09,23,09,28,8.70
2007,09,23,09,29,8.80
2007,09,23,09,30,8.80
2007,09,23,09,31,8.90
2007,09,23,09,32,9.00
2007,09,23,09,33,9.00
2007,09,23,09,34,9.10
2007,09,23,09,35,9.20
2007,09,23,09,36,9.30
2007,09,23,09,37,9.40
2007,09,23,09,38,9.50
2007,09,23,09,39,9.60
2007,09,23,09,40,9.70
2007,09,23,09,41,9.80
2007,09,23,09,42,9.90
2007,09,23,09,43,10.00
2007,09,23,09,44,10.20
2007,09,23,09,45,10.30
2007,09,23,09,46,10.30
2007,09,23,09,47,10.40
2007,09,23,09,48,10.40
2007,09,23,09,49,10.50
2007,09,23,09,50,10.60
2007,09,23,09,51,10.70
2007,09,23,09,52,10.70
2007,09,23,09,53,10.80
2007,09,23,09,54,10.90
2007,09,23,09,55,11.00
2007,09,23,09,56,11.00
2007,09,23,09,57,11.10
2007,09,23,09,58,11.10
2007,09,23,09,59,11.10
2007,09,23,10,00,11.20
2007,09,23,10,01,11.20
2007,09,23,10,02,11.20
2007,09,23,10,03,11.10
2007,09,23,10,04,11.10
2007,09,23,10,05,11.10
2007,09,23,10,06,11.10
2007,09,23,10,07,11.10
2007,09,23,10,08,11.10
2007,09,23,10,09,11.10
2007,09,23,10,10,11.20
2007,09,23,10,11,11.20
2007,09,23,10,12,11.30
2007,09,23,10,13,11.30
2007,09,23,10,14,11.30
2007,09,23,10,15,11.40
2007,09,23,10,16,11.40
2007,09,23,10,17,11.40
2007,09,23,10,18,11.50
2007,09,23,10,19,11.50
2007,09,23,10,20,11.60
2007,09,23,10,21,11.60
2007,09,23,10,22,11.70
2007,09,23,10,23,11.70
2007,09,23,10,24,11.70
2007,09,23,10,25,11.70
2007,09,23,10,26,11.80
2007,09,23,10,27,11.80
2007,09,23,10,28,11.70
2007,09,23,10,29,11.80
2007,09,23,10,30,11.80
2007,09,23,10,31,11.80
2007,09,23,10,32,11.90
2007,09,23,10,33,11.90
2007,09,23,10,34,11.90
2007,09,23,10,35,12.00
2007,09,23,10,36,12.10
2007,09,23,10,37,12.10
2007,09,23,10,38,12.10
2007,09,23,10,39,12.20
2007,09,23,10,40,12.20
2007,09,23,10,41,12.30
2007,09,23,10,42,12.30
2007,09,23,10,43,12.30
2007,09,23,10,44,12.30
2007,09,23,10,45,12.30
2007,09,23,10,46,12.30
2007,09,23,10,47,12.30
2007,09,23,10,48,12.30
2007,09,23,10,49,12.40
2007,09,23,10,50,12.40
2007,09,23,10,51,12.50
2007,09,23,10,52,12.60
2007,09,23,10,53,12.60
2007,09,23,10,54,12.60
2007,09,23,10,55,12.60
2007,09,23,10,56,12.60
2007,09,23,10,57,12.60
2007,09,23,10,58,12.50
2007,09,23,10,59,12.50
2007,09,23,11,00,12.40
2007,09,23,11,01,12.40
2007,09,23,11,02,12.40
2007,09,23,11,03,12.50
2007,09,23,11,04,12.50
2007,09,23,11,05,12.60
2007,09,23,11,06,12.60
2007,09,23,11,07,12.70
2007,09,23,11,08,12.70
2007,09,23,11,09,12.80
2007,09,23,11,10,12.80
2007,09,23,11,11,12.90
2007,09,23,11,12,12.90
2007,09,23,11,13,12.80
2007,09,23,11,14,12.80
2007,09,23,11,15,12.80
2007,09,23,11,16,12.80
2007,09,23,11,17,12.80
2007,09,23,11,18,12.80
2007,09,23,11,19,12.80
2007,09,23,11,20,12.90
2007,09,23,11,21,12.90
2007,09,23,11,22,13.00
2007,09,23,11,23,13.00
2007,09,23,11,24,13.10
2007,09,23,11,25,13.20
2007,09,23,11,26,13.30
2007,09,23,11,27,13.30
2007,09,23,11,28,13.30
2007,09,23,11,29,13.20
2007,09,23,11,30,13.20
2007,09,23,11,31,13.20
2007,09,23,11,32,13.30
2007,09,23,11,33,13.30
2007,09,23,11,34,13.40
2007,09,23,11,35,13.50
2007,09,23,11,36,13.60
2007,09,23,11,37,13.60
2007,09,23,11,38,13.50
2007,09,23,11,39,13.50
2007,09,23,11,40,13.50
2007,09,23,11,41,13.50
2007,09,23,11,42,13.60
2007,09,23,11,43,13.60
2007,09,23,11,44,13.70
2007,09,23,11,45,13.70
2007,09,23,11,46,13.70
2007,09,23,11,47,13.70
2007,09,23,11,48,13.80
2007,09,23,11,49,13.80
2007,09,23,11,50,13.90
2007,09,23,11,51,14.00
2007,09,23,11,52,14.10
2007,09,23,11,53,14.20
2007,09,23,11,54,14.30
2007,09,23,11,55,14.40
2007,09,23,11,56,14.40
2007,09,23,11,57,14.50
2007,09,23,11,58,14.60
2007,09,23,11,59,14.60
2007,09,23,12,00,14.70
2007,09,23,12,01,14.80
2007,09,23,12,02,14.90
2007,09,23,12,03,15.00
2007,09,23,12,04,15.00
2007,09,23,12,05,15.00
2007,09,23,12,06,15.20
2007,09,23,12,07,15.20
2007,09,23,12,08,15.20
2007,09,23,12,09,15.30
2007,09,23,12,10,15.20
2007,09,23,12,11,15.00
2007,09,23,12,12,15.00
2007,09,23,12,13,15.00
2007,09,23,12,14,15.00
2007,09,23,12,15,15.00
2007,09,23,12,16,15.00
2007,09,23,12,17,15.00
2007,09,23,12,18,15.00
2007,09,23,12,19,15.00
2007,09,23,12,20,15.00
2007,09,23,12,21,15.00
2007,09,23,12,22,15.00
2007,09,23,12,23,15.00
2007,09,23,12,24,15.00
2007,09,23,12,25,15.10
2007,09,23,12,26,15.20
2007,09,23,12,27,15.20
2007,09,23,12,28,15.20
2007,09,23,12,29,15.30
2007,09,23,12,30,15.30
2007,09,23,12,31,15.40
2007,09,23,12,32,15.50
2007,09,23,12,33,15.60
2007,09,23,12,34,15.70
2007,09,23,12,35,15.80
2007,09,23,12,36,15.80
2007,09,23,12,37,15.80
2007,09,23,12,38,15.70
2007,09,23,12,39,15.70
2007,09,23,12,40,15.60
2007,09,23,12,41,15.60
2007,09,23,12,42,15.70
2007,09,23,12,43,15.80
2007,09,23,12,44,15.80
2007,09,23,12,45,15.70
2007,09,23,12,46,15.70
2007,09,23,12,47,15.80
2007,09,23,12,48,15.80
2007,09,23,12,49,15.70
2007,09,23,12,50,15.70
2007,09,23,12,51,15.80
2007,09,23,12,52,15.80
2007,09,23,12,53,15.80
2007,09,23,12,54,15.80
2007,09,23,12,55,15.70
2007,09,23,12,56,15.80
2007,09,23,12,57,15.80
2007,09,23,12,58,15.80
2007,09,23,12,59,15.80
2007,09,23,13,00,15.90
2007,09,23,13,01,15.90
2007,09,23,13,02,15.90
2007,09,23,13,03,15.90
2007,09,23,13,04,16.00
2007,09,23,13,05,16.00
2007,09,23,13,06,16.10
2007,09,23,13,07,16.10
2007,09,23,13,08,16.30
2007,09,23,13,09,16.30
2007,09,23,13,10,16.50
2007,09,23,13,11,16.50
2007,09,23,13,12,16.60
2007,09,23,13,13,16.60
2007,09,23,13,14,16.70
2007,09,23,13,15,16.70
2007,09,23,13,16,16.80
2007,09,23,13,17,16.80
2007,09,23,13,18,16.80
2007,09,23,13,19,16.80
2007,09,23,13,20,16.70
2007,09,23,13,21,16.70
2007,09,23,13,22,16.70
2007,09,23,13,23,16.60
2007,09,23,13,24,16.50
2007,09,23,13,25,16.50
2007,09,23,13,26,16.40
2007,09,23,13,27,16.50
2007,09,23,13,28,16.50
2007,09,23,13,29,16.50
2007,09,23,13,30,16.30
2007,09,23,13,31,16.30
2007,09,23,13,32,16.30
2007,09,23,13,33,16.30
2007,09,23,13,34,16.30
2007,09,23,13,35,16.30
2007,09,23,13,36,16.30
2007,09,23,13,37,16.30
2007,09,23,13,38,16.20
2007,09,23,13,39,16.20
2007,09,23,13,40,16.20
2007,09,23,13,41,16.20
2007,09,23,13,42,16.10
2007,09,23,13,43,16.10
2007,09,23,13,44,16.10
2007,09,23,13,45,16.10
2007,09,23,13,46,16.20
2007,09,23,13,47,16.20
2007,09,23,13,48,16.30
2007,09,23,13,49,16.40
2007,09,23,13,50,16.40
2007,09,23,13,51,16.50
2007,09,23,13,52,16.50
2007,09,23,13,53,16.60
2007,09,23,13,54,16.70
2007,09,23,13,55,16.70
2007,09,23,13,56,16.80
2007,09,23,13,57,16.80
2007,09,23,13,58,16.90
2007,09,23,13,59,17.00
2007,09,23,14,00,17.10
2007,09,23,14,01,17.10
2007,09,23,14,02,17.20
2007,09,23,14,03,17.20
2007,09,23,14,04,17.30
2007,09,23,14,05,17.30
2007,09,23,14,06,17.20
2007,09,23,14,07,17.20
2007,09,23,14,08,17.10
2007,09,23,14,09,16.90
2007,09,23,14,10,16.80
2007,09,23,14,11,16.70
2007,09,23,14,12,16.70
2007,09,23,14,13,16.70
2007,09,23,14,14,16.70
2007,09,23,14,15,16.80
2007,09,23,14,16,16.90
2007,09,23,14,17,17.00
2007,09,23,14,18,17.10
2007,09,23,14,19,17.20
2007,09,23,14,20,17.30
2007,09,23,14,21,17.40
2007,09,23,14,22,17.50
2007,09,23,14,23,17.60
2007,09,23,14,24,17.60
2007,09,23,14,25,17.50
2007,09,23,14,26,17.40
2007,09,23,14,27,17.20
2007,09,23,14,28,17.00
2007,09,23,14,29,17.00
2007,09,23,14,30,17.00
2007,09,23,14,31,17.00
2007,09,23,14,32,17.00
2007,09,23,14,33,17.00
2007,09,23,14,34,17.00
2007,09,23,14,35,17.10
2007,09,23,14,36,17.10
2007,09,23,14,37,17.20
2007,09,23,14,38,17.30
2007,09,23,14,39,17.40
2007,09,23,14,40,17.40
2007,09,23,14,41,17.40
2007,09,23,14,42,17.30
2007,09,23,14,43,17.20
2007,09,23,14,44,17.20
2007,09,23,14,45,17.20
2007,09,23,14,46,17.10
2007,09,23,14,47,17.00
2007,09,23,14,48,16.90
2007,09,23,14,49,16.90
2007,09,23,14,50,16.90
2007,09,23,14,51,17.00
2007,09,23,14,52,17.00
2007,09,23,14,53,17.10
2007,09,23,14,54,17.10
2007,09,23,14,55,17.10
2007,09,23,14,56,17.20
2007,09,23,14,57,17.30
2007,09,23,14,58,17.40
2007,09,23,14,59,17.40
2007,09,23,15,00,17.40
2007,09,23,15,01,17.40
2007,09,23,15,02,17.50
2007,09,23,15,03,17.50
2007,09,23,15,04,17.40
2007,09,23,15,05,17.30
2007,09,23,15,06,17.20
2007,09,23,15,07,17.20
2007,09,23,15,08,17.20
2007,09,23,15,09,17.20
2007,09,23,15,10,17.20
2007,09,23,15,11,17.10
2007,09,23,15,12,17.10
2007,09,23,15,13,17.10
2007,09,23,15,14,17.10
2007,09,23,15,15,17.20
2007,09,23,15,16,17.20
2007,09,23,15,17,17.20
2007,09,23,15,18,17.20
2007,09,23,15,19,17.20
2007,09,23,15,20,17.20
2007,09,23,15,21,17.10
2007,09,23,15,22,17.20
2007,09,23,15,23,17.20
2007,09,23,15,24,17.20
2007,09,23,15,25,17.20
2007,09,23,15,26,17.20
2007,09,23,15,27,17.20
2007,09,23,15,28,17.20
2007,09,23,15,29,17.10
2007,09,23,15,30,17.10
2007,09,23,15,31,17.10
2007,09,23,15,32,17.10
2007,09,23,15,33,17.20
2007,09,23,15,34,17.20
2007,09,23,15,35,17.20
2007,09,23,15,36,17.20
2007,09,23,15,37,17.20
2007,09,23,15,38,17.10
2007,09,23,15,39,17.00
2007,09,23,15,40,17.00
2007,09,23,15,41,17.00
2007,09,23,15,42,17.00
2007,09,23,15,43,17.00
2007,09,23,15,44,17.00
2007,09,23,15,45,17.00
2007,09,23,15,46,17.00
2007,09,23,15,47,16.90
2007,09,23,15,48,16.90
2007,09,23,15,49,16.80
2007,09,23,15,50,16.80
2007,09,23,15,51,16.80
2007,09,23,15,52,16.80
2007,09,23,15,53,16.80
2007,09,23,15,54,16.90
2007,09,23,15,55,16.90
2007,09,23,15,56,16.90
2007,09,23,15,57,16.90
2007,09,23,15,58,16.90
2007,09,23,15,59,17.00
2007,09,23,16,00,17.00
2007,09,23,16,01,17.10
2007,09,23,16,02,17.20
2007,09,23,16,03,17.20
2007,09,23,16,04,17.30
2007,09,23,16,05,17.30
2007,09,23,16,06,17.30
2007,09,23,16,07,17.20
2007,09,23,16,08,17.10
2007,09,23,16,09,17.10
2007,09,23,16,10,17.10
2007,09,23,16,11,17.10
2007,09,23,16,12,17.00
2007,09,23,16,13,17.00
2007,09,23,16,14,17.00
2007,09,23,16,15,17.00
2007,09,23,16,16,17.00
2007,09,23,16,17,17.00
2007,09,23,16,18,17.00
2007,09,23,16,19,17.00
2007,09,23,16,20,17.00
2007,09,23,16,21,17.10
2007,09,23,16,22,17.10
2007,09,23,16,23,17.10
2007,09,23,16,24,17.10
2007,09,23,16,25,17.10
2007,09,23,16,26,17.10
2007,09,23,16,27,17.10
2007,09,23,16,28,17.10
2007,09,23,16,29,17.20
2007,09,23,16,30,17.10
2007,09,23,16,31,17.10
2007,09,23,16,32,17.00
2007,09,23,16,33,17.00
2007,09,23,16,34,16.90
2007,09,23,16,35,16.90
2007,09,23,16,36,16.90
2007,09,23,16,37,16.90
2007,09,23,16,38,16.90
2007,09,23,16,39,16.90
2007,09,23,16,40,16.90
2007,09,23,16,41,16.90
2007,09,23,16,42,16.90
2007,09,23,16,43,16.80
2007,09,23,16,44,16.80
2007,09,23,16,45,16.80
2007,09,23,16,46,16.80
2007,09,23,16,47,16.80
2007,09,23,16,48,16.70
2007,09,23,16,49,16.70
2007,09,23,16,50,16.60
2007,09,23,16,51,16.60
2007,09,23,16,52,16.60
2007,09,23,16,53,16.60
2007,09,23,16,54,16.50
2007,09,23,16,55,16.50
2007,09,23,16,56,16.50
2007,09,23,16,57,16.50
2007,09,23,16,58,16.50
2007,09,23,16,59,16.60
2007,09,23,17,00,16.60
2007,09,23,17,01,16.60
2007,09,23,17,02,16.60
2007,09,23,17,03,16.60
2007,09,23,17,04,16.60
2007,09,23,17,05,16.60
2007,09,23,17,06,16.60
2007,09,23,17,07,16.50
2007,09,23,17,08,16.50
2007,09,23,17,09,16.50
2007,09,23,17,10,16.50
2007,09,23,17,11,16.50
2007,09,23,17,12,16.40
2007,09,23,17,13,16.30
2007,09,23,17,14,16.30
2007,09,23,17,15,16.30
2007,09,23,17,16,16.30
2007,09,23,17,17,16.30
2007,09,23,17,18,16.20
2007,09,23,17,19,16.20
2007,09,23,17,20,16.20
2007,09,23,17,21,16.20
2007,09,23,17,22,16.20
2007,09,23,17,23,16.10
2007,09,23,17,24,16.10
2007,09,23,17,25,16.10
2007,09,23,17,26,16.10
2007,09,23,17,27,16.10
2007,09,23,17,28,16.10
2007,09,23,17,29,16.10
2007,09,23,17,30,16.00
2007,09,23,17,31,16.00
2007,09,23,17,32,15.90
2007,09,23,17,33,15.90
2007,09,23,17,34,15.90
2007,09,23,17,35,15.90
2007,09,23,17,36,15.90
2007,09,23,17,37,15.80
2007,09,23,17,38,15.80
2007,09,23,17,39,15.80
2007,09,23,17,40,15.70
2007,09,23,17,41,15.70
2007,09,23,17,42,15.70
2007,09,23,17,43,15.70
2007,09,23,17,44,15.70
2007,09,23,17,45,15.70